CZ-6A DEB, 64646

Orbit data source: Space-Track

CZ-6A DEB, 64646 is space debris in LEO originally from a launch on Tue, 06 Aug 2024 UTC launched from the Taiyaun Space Center, China (TSC). Debris objects in space refer to the collection of defunct objects orbiting the Earth. Examples of debris include non-operational satellites, rocket bodies, and fragments generated from explosions, collisions, or faulty payload assembly.

Loading next visibility...
Identifier
64646, 2024-140AEL
Orbit
LEO
Country
Flag of CNCN / PRC
Related business
Manufacturer
SAST
Mission
Spacecraft
Bus & Motor
Unknown
Mass
Unknown
Launch date (UTC)
2024-08-06 (2 years ago)
Launch vehicle
Unknown
Launch site
Taiyaun Space Center, China (TSC)
Object type
Payload
Rocket body
Debris
Shape & HBR
Unknown shape, 1.1 m
Radar Cross Section
Medium (>0.1 m² and <1 m²)

Expand to show TLE details & history
Last TLE update: 18 hours ago

TLE from 18 hours ago
0 CZ-6A DEB
1 64646U 24140AEL 26171.08110178  .00005767  00000-0  15292-2 0  9996
2 64646  88.2036 206.5120 0060747 199.9445 159.9386 14.47493450 89038
Epoch: 2026-06-20T01:56Z
TLE epoch observation values (Epoch: 2026-06-20T01:56:47.193Z)
Latitude
-0.00002°
Longitude
-90.98549°
Altitude
777.556 km
Speed
7.444 km/s
True Right ascension
13h 46m 02s
True Declination
0° 00' 00"
Sunlit
Object was in daylight at epoch
Visualization orbit readout
Latitude
Unknown
Longitude
Unknown
Altitude
Unknown
Speed
Unknown
Apparent Right ascension
Unknown
Apparent Declination
Unknown
Sunlit
N/A
Visualization observer readout
Local Sidereal Time
07:19:00
Azimuth
Unknown
Elevation
Unknown
Doppler factor
Unknown
Orbital elements
Apogee altitude
773.949 km
Perigee altitude
687.581 km
Semi-major axis
7,108.902 km
Eccentricity
0.00607
Inclination
88.2036°
RAAN
206.512°
Arg. of periapsis
199.9445°
True anomaly
160.17569°
Mean anomaly
159.9386°
Eccentric anomaly
160.05731°
Mean motion
3.62109 °/min
Orbital period
99.42 mins
BSTAR
0.0015292
Loading maneuver chart data...
Computing Atmospheric mass density...
Loading historical data...
Loading historical data...
Loading historical data...
Loading historical data...
Loading historical data...
Loading historical data...
Loading historical data...

Documentation

Showing up to 5 results
|